sat.trackr.live / text

‹ back to catalog

TOMORROW-S9

NORAD 66309 · 2025-248S

PAYLOAD ACTIVE UNKNOWN

§ Identity

Operator
Country
US
Launch date
2025-11-02
Launch site
AFETR
Launch vehicle
Mass (kg)
RCS (m²)

External: N2YO · Heavens-Above · Gunter

§ Orbital elements

Epoch: 2026-05-25T00:10:44.289120Z

Period
94.72 min
Inclination
45.4034°
Eccentricity
0.0004593
Mean motion
15.20279752 rev/d
Perigee alt
501.8 km
Apogee alt
508.2 km
Semi-major
6,883.1 km
B*
1.9443e-4
RAAN
246.0318°
Arg perigee
282.6055°
Mean anomaly
77.4318°
Rev number
3,098

§ Raw data

TOMORROW-S91 66309U 25248S   26145.00745705  .00004018  00000+0  19443-3 0  99972 66309  45.4034 246.0318 0004593 282.6055  77.4318 15.20279752 30989

JSON: /api/v1/satellites/66309 · /tle

For live sub-satellite position, see the globe view (requires WebGL).

§ Visibility from observer

Set your observer location to see the next 7 days of passes ≥ 10°. The values pass through the URL so the page stays shareable.

No JS? Fill the form by hand. The geolocation button needs JavaScript.